Location: Innsbruck
(47.2657°N, 11.3914°E)
Time: 03:26:47
(UTC+02:00)

Envisat - Pass Details

Date: 02 October 2021
Orbit: 764 x 766 km, 98.2° (Epoch: 17 October)

Event Time Altitude Azimuth Distance (km) Brightness Sun altitude
Rises 06:35:18 0° 13° (NNE) 3,243 6.5 -7.5°
Reaches altitude 10° 06:37:36 10° 13° (NNE) 2,312 5.7 -7.1°
Maximum altitude 06:42:43 87° 284° (WNW) 772 3.0 -6.3°
Drops below altitude 10° 06:47:47 10° 197° (SSW) 2,295 5.3 -5.4°
Sets 06:50:04 0° 197° (SSW) 3,216 6.1 -5.0°
